OpenBCM V1.08-5-g2f4a (Linux)

Packet Radio Mailbox

IZ3LSV

[San Dona' di P. JN]

 Login: GUEST





  
LU9DCE > KEPS     13.01.18 18:36l 258 Lines 12946 Bytes #999 (0) @ LUNET
BID : 29223_LU9DCE
Read: GUEST
Subj: SAT TLE OF 13
Path: IZ3LSV<IQ2LB<IQ5KG<IK1NHL<CX2SA<EA2RCF<LU9DCE
Sent: 180113/1601Z @:LU9DCE.TOR.BA.ARG.SOAM #:29223 [TORTUGUITAS] FBB7.0.8-beta
From: LU9DCE@LU9DCE.TOR.BA.ARG.SOAM
To  : KEPS@LUNET


            __    _  _  ___  ____   ___  ____    ____  ____  ____
           (  )  / )( \/ _ \(    \ / __)(  __)  (  _ \(  _ \/ ___)
           / (_/\) \/ (\__  )) D (( (__  ) _)    ) _ ( ) _ (\___ \
           \____/\____/(___/(____/ \___)(____)  (____/(____/(____/
               ESTACION DE PACKET RADIO - BUENOS AIRES (GF05OM)
                   BOLETINES INFORMATIVOS PROGRAMADOS (BIP)
                    LU9DCE@GMX.COM - RF 147070 @ 1200 BAUD
                        https://lu9dce.wordpress.com/
                      telnet lu9dce.dynu.com port 6300

+------------------------------------------------------------------------------+
OSCAR 7
1 07530U 74089B   18013.52941676 -.00000043  00000-0  12028-4 0  9991
2 07530 101.6651 343.3131 0011820 275.4786 201.3550 12.53630589975218
OSCAR 11 (UoSAT 2)
1 14781U 84021B   18013.55528545  .00000090  00000-0  17255-4 0  9991
2 14781  97.6706  56.1896 0007478 222.9313 137.1318 14.82973008821525
OSCAR 19 (LUSAT)
1 20442U 90005G   18012.77331545 +.00000002 +00000-0 +17065-4 0  9998
2 20442 098.5964 312.3439 0010682 247.3498 112.6557 14.32884066461576
KITSAT B
1 22825U 93061C   18012.89076581 +.00000004 +00000-0 +19208-4 0  9992
2 22825 098.8424 346.3653 0009486 080.5683 279.6570 14.30019078267108
POSAT 1
1 22826U 93061D   18013.08340143  .00000012  00000-0  22418-4 0  9999
2 22826  98.8366 346.6179 0009971  71.0490 289.1771 14.30349819267580
RADIO ROSTO
1 23439U 94085A   18012.95175591 -.00000020 +00000-0 +64607-3 0  9990
2 23439 064.8140 239.8976 0162200 209.5662 250.2614 11.27566338949061
JAS 2
1 24278U 96046B   18012.57635953 -.00000037 +00000-0 -36171-5 0  9998
2 24278 098.5313 232.6420 0350819 154.4600 207.4345 13.53080389056948
TECHSAT 1B
1 25397U 98043D   18012.84850436 -.00000020 +00000-0 +10445-4 0  9991
2 25397 098.6343 315.9921 0002340 100.1667 259.9775 14.23637791013406
ISS (ZARYA)
1 25544U 98067A   18012.80420464 +.00002491 +00000-0 +44595-4 0  9997
2 25544 051.6431 073.3294 0003407 008.0126 102.1629 15.54299089094355
PCSAT
1 26931U 01043C   18012.93049107 -.00000027 +00000-0 +21356-4 0  9995
2 26931 067.0512 270.0172 0005257 276.4567 083.5935 14.30490416850276
SAUDISAT 1C
1 27607U 02058C   18013.13100076  .00000003  00000-0  21117-4 0  9997
2 27607  64.5537 203.9654 0046346   7.3346 352.8423 14.75411418810089
CUTE-1
1 27844U 03031E   18013.02969449  .00000070  00000-0  51204-4 0  9991
2 27844  98.6885  23.9650 0010818  99.8549 260.3851 14.22088281754140
CUBESAT XI 4
1 27848U 03031J   18013.01639181  .00000050  00000-0  42609-4 0  9998
2 27848  98.6974  24.2952 0010678 108.8016 251.4320 14.21695853754012
MOZHAYETS 4
1 27939U 03042A   18013.51791997  .00000091  00000-0  24926-4 0  9997
2 27939  97.9660 156.8774 0011655 279.7805 155.5521 14.66648692764141
CUBESAT XI 5
1 28895U 05043F   18012.94149359 +.00000141 +00000-0 +35849-4 0  9999
2 28895 097.8858 170.8933 0016534 195.9768 164.0916 14.63497227650939
CUTE-1.7+APD II
1 32785U 08021C   18012.85322305  .00000242  00000-0  31886-4 0  9994
2 32785  97.5539  32.4005 0012880 187.1265 172.9771 14.88044683526078
DELFI C3
1 32789U 08021G   18013.15403207  .00001303  00000-0  94243-4 0  9998
2 32789  97.5346  71.7552 0014155 106.2238 254.0548 15.05673260528457
SEEDS
1 32791U 08021J   18012.58927036 +.00000321 +00000-0 +38330-4 0  9992
2 32791 097.5471 037.1267 0013684 170.3383 189.8101 14.90442969526256
YUBELEINY
1 32953U 08025A   18013.34821335  .00000001  00000-0 -63101-4 0  9996
2 32953  82.5041 108.9828 0019575 184.6741 175.4159 12.43080879437534
PRISM (HITOMI)
1 33493U 09002B   18013.40771654  .00001013  00000-0  95702-4 0  9992
2 33493  98.1457 269.4331 0016591 104.5455 255.7545 14.96044095487208
KKS-1 (KISEKI)
1 33499U 09002H   18013.20335520  .00000107  00000-0  23860-4 0  9993
2 33499  98.3458 189.9990 0010352  69.1599 291.0716 14.75283783482325
SWISSCUBE
1 35932U 09051B   18012.93427884 +.00000126 +00000-0 +39559-4 0  9998
2 35932 098.5216 160.5763 0006978 334.1739 025.9108 14.56110050440807
BEESAT
1 35933U 09051C   18012.35445555 +.00000111 +00000-0 +36102-4 0  9995
2 35933 098.5255 161.4305 0005494 353.2115 006.9007 14.56218887440786
ITUPSAT 1
1 35935U 09051E   18013.21523603  .00000083  00000-0  30190-4 0  9993
2 35935  98.5368 162.5647 0007632 341.1502  18.9411 14.55402267440784
XIWANG-1 (HOPE-1)
1 36122U 09072B   18013.19029961 -.00000041  00000-0  36727-5 0  9998
2 36122 100.0853  35.0207 0008133 109.2851 250.9143 13.16342911388263
TISAT 1
1 36799U 10035E   18012.93018346 +.00000324 +00000-0 +39087-4 0  9999
2 36799 098.0843 145.2719 0012260 004.6182 355.5146 14.90665961406825
JUGNU
1 37839U 11058B   18013.02505961  .00000309  00000-0  22823-4 0  9999
2 37839  19.9605 258.1195 0018887 336.4680 156.3543 14.12606209323405
SRMSAT
1 37841U 11058D   18013.17760345  .00000303  00000-0  21346-4 0  9990
2 37841  19.9726 303.2011 0011804 227.0820 276.1670 14.10596033322967
M-CUBED/EXP-1 PRIME
1 37855U 11061F   18012.89108157 +.00001284 +00000-0 +73847-4 0  9996
2 37855 101.7218 355.9702 0177899 181.6498 178.4149 15.03977512337837
HORYU 2
1 38340U 12025D   18012.91760172 +.00000234 +00000-0 +42560-4 0  9993
2 38340 098.3748 029.2370 0011328 351.1813 008.9194 14.75482654293808
STRAND 1
1 39090U 13009E   18012.55204462 +.00000027 +00000-0 +24680-4 0  9997
2 39090 098.5337 220.8211 0009983 044.3256 315.8727 14.35006320255488
BEESAT 3
1 39134U 13015E   18012.95011549 +.00001128 +00000-0 +63294-4 0  9996
2 39134 064.8633 268.9011 0029389 230.6320 129.2203 15.18710306260948
SOMP
1 39135U 13015F   18012.91958994 +.00000818 +00000-0 +51792-4 0  9992
2 39135 064.8696 280.3742 0030676 255.0301 104.7428 15.16313606260710
BEESAT 2
1 39136U 13015G   18012.90155338 +.00000696 +00000-0 +46234-4 0  9992
2 39136 064.8698 282.8069 0030965 253.3723 106.4002 15.15797062260664
CUBEBUG 1
1 39153U 13018D   18013.18488462  .00000207  00000-0  34118-4 0  9998
2 39153  97.9821 109.3546 0018389  89.1128 271.2191 14.80323670254665
ZACUBE
1 39417U 13066B   18012.63782857 +.00000223 +00000-0 +34753-4 0  9991
2 39417 097.6055 049.4368 0057920 305.3869 054.1941 14.80858266223772
TRITON 1
1 39427U 13066M   18012.99047591  .00000247  00000-0  47232-4 0  9992
2 39427  97.6364  19.2629 0115040  37.2161 323.6948 14.67596310221813
GOMX 1
1 39430U 13066Q   18013.52084058  .00000238  00000-0  51721-4 0  9993
2 39430  97.6808   1.6960 0153057  98.7389 263.1181 14.59004338220605
HUMSAT D
1 39433U 13066T   18013.16360628  .00000484  00000-0  53268-4 0  9997
2 39433  97.6269  74.7986 0029882 237.0740 122.7604 14.91716573225315
50 SAT
1 39436U 13066W   18012.86350714  .00045165  00000-0  66729-3 0  9991
2 39436  97.7115 136.5191 0005434  36.2821 323.8800 15.55196411229017
CUBEBUG 2
1 39440U 13066AA  18013.53644523  .00000245  00000-0  41413-4 0  9999
2 39440  97.6113  37.8879 0079994 338.7072  21.0816 14.75596482223117
FUNCUBE 1
1 39444U 13066AE  18012.84958485 +.00000272 +00000-0 +40284-4 0  9996
2 39444 097.6069 050.9640 0057041 300.5573 059.0019 14.81620642222067
UWE-3
1 39446U 13066AG  18013.07934377  .00000237  00000-0  38410-4 0  9997
2 39446  97.6072  43.3084 0069354 322.4940  37.1443 14.78129131222209
SPROUT
1 39770U 14029E   18013.52882187  .00000714  00000-0  86647-4 0  9993
2 39770  97.8752 115.9447 0009163   7.1083 353.0270 14.86628864197386
UNISAT 6
1 40012U 14033C   18013.21299672  .00000187  00000-0  35616-4 0  9990
2 40012  97.8298 255.0128 0058155 339.7048  20.1850 14.73750249191877
DUCHIFAT 1
1 40021U 14033M   18012.75328486  .00000355  00000-0  42583-4 0  9992
2 40021  97.9177 291.1929 0012542 337.1528  22.9130 14.90167286193807
QB50P1
1 40025U 14033R   18013.21587770  .00000263  00000-0  34249-4 0  9999
2 40025  97.9093 288.9036 0012094 341.4024  18.6749 14.88615530193739
CHUBUSAT 1
1 40300U 14070C   18013.46221358  .00000731  00000-0  35547-4 0  9992
2 40300  97.3793  94.3780 0022188  85.0616 330.1745 15.21340379176759
NUDT-PHONESAT
1 40900U 15049B   18012.91193088 +.00002156 +00000-0 +10122-3 0  9996
2 40900 097.4423 023.0240 0012840 206.7740 153.2834 15.20654270128319
ZDPS 2A
1 40901U 15049C   18013.52403871  .00000885  00000-0  48400-4 0  9997
2 40901  97.4585  22.3229 0012935 209.5720 150.4783 15.16796587128216
ZDPS 2B
1 40902U 15049D   18013.21354118  .00000874  00000-0  48075-4 0  9999
2 40902  97.4472  20.3032 0013022 207.7190 152.3350 15.16606989128151
XW-2A
1 40903U 15049E   18013.54969784  .00001809  00000-0  47561-4 0  9995
2 40903  97.4024  46.7647 0013201 223.2630 136.7580 15.39885252130005
KAITUO 1A
1 40904U 15049F   18013.46433598  .00000405  00000-0  25302-4 0  9996
2 40904  97.4574  19.9793 0013756 209.4050 309.2889 15.14845853128076
OBJECT G
1 40905U 15049G   18013.54993466  .00000426  00000-0  27103-4 0  9995
2 40905  97.4551  18.4021 0015229 200.4024 159.6601 15.13828356128021
XW-2C
1 40906U 15049H   18012.91457250 +.00000705 +00000-0 +41235-4 0  9994
2 40906 097.4576 019.2996 0014424 202.5405 157.5196 15.14971300127980
XW-2D
1 40907U 15049J   18013.54209359  .00000688  00000-0  40175-4 0  9992
2 40907  97.4548  19.6335 0013876 197.8560 162.2187 15.15106189128080
LILACSAT 2
1 40908U 15049K   18012.90422762 +.00000397 +00000-0 +25830-4 0  9995
2 40908 097.4656 018.5604 0015449 200.9762 159.0838 15.13380223127881
XW-2F
1 40910U 15049M   18013.54080113  .00001024  00000-0  56340-4 0  9997
2 40910  97.4559  20.6699 0014728 194.6332 165.4477 15.16191595128016
XW-2B
1 40911U 15049N   18012.95977571 +.00000721 +00000-0 +42012-4 0  9999
2 40911 097.4587 019.5379 0013736 200.4448 159.6236 15.15056055127895
